COSMOS 1275 DEB, 12674

Orbit data source: Space-Track

COSMOS 1275 DEB, 12674 is space debris in LEO originally from a launch on Thu, 04 Jun 1981 UTC launched from the Plesetsk Missile And Space Complex (PKMTR). Debris objects in space refer to the collection of defunct objects orbiting the Earth. Examples of debris include non-operational satellites, rocket bodies, and fragments generated from explosions, collisions, or faulty payload assembly.

Loading next visibility...
COSMOS 1275 DEB details
Identifier
12674, 1981-053AE
Orbit
LEO
Last TLE update9 hours ago
Origin
Flag of CISVMF (CIS)
ManufacturerUnknown
MissionSpacecraft
Bus & MotorUnknown
MassUnknown
Launch date (UTC)
1981-06-04 (44 years ago)
Launch vehicleUnknown
Launch site
Plesetsk Missile And Space Complex (PKMTR)
Object type
Payload
Rocket body
Debris
Shape & HBRUnknown
Radar Cross SectionMedium (>0.1 m² and <1 m²)

Expand to show TLE details & history

TLE from 9 hours ago
0 COSMOS 1275 DEB
1 12674U 81053AE  25025.46102360  .00001758  00000-0  17821-2 0  9995
2 12674  82.9358  22.7176 0100316 319.6491 194.5796 13.74340843170068
Epoch: 2025-01-25T11:03Z
Definitive object data (Epoch: 2025-01-25T11:03:52.439Z)
Latitude25.8758°
Longitude-91.68874°
Altitude1,058.698 km
Speed7.289 km/s
True Right ascension13h 17m 09s
True Declination25° 44' 47"
Sunlit
Object was in daylight at TLE epoch
Visualization TLE readout
Latitude-21.06001°
Longitude-85.81622°
Altitude1,025.6 km
Speed7.321 km/s
Apparent Right ascension11h 56m 20s
Apparent Declination-33° 45' 17"
Sunlit
Object is in daylight
Visualization observer readout
Local Sidereal Time21:23:00
Azimuth269.148° W
Elevation-58.955°
Doppler factor1
Orbital elements
Apogee altitude1,055.003 km
Perigee altitude907.352 km
Semi-major axis7,359.314 km
Eccentricity0.0100316
Inclination82.9358°
RAAN22.7176°
Arg. of periapsis319.6491°
True anomaly194.29371°
Mean anomaly194.5796°
Eccentric anomaly194.43631°
Mean motion3.43785 °/min
BSTAR0.0017821
Orbital period104.72 mins
Loading maneuver chart data...
Loading historical data...
Loading historical data...
Loading historical data...
Loading historical data...
Loading historical data...
Loading historical data...
Loading historical data...

COSMOS 1275 DEB Visibility forecast

Observer location: undefined°, undefined

Span
Click to sort rows by Start time (UTC) header in descending order
Start Az.
Max El. time (UTC)
Max El. Az.
Max El.
End time (UTC)
End Az.
11 mins2025-01-26 00:23:58.574Z183.674° SSW2025-01-26 00:28:58.574Z123.803° SE44.947°2025-01-26 00:34:58.574Z7.874° NNE
4 mins2025-01-26 02:13:58.574Z279.224° WNW2025-01-26 02:15:58.574Z299.829° NW13.085°2025-01-26 02:17:58.574Z319.26° NNW
11 mins2025-01-26 11:21:58.574Z358.732° N2025-01-26 11:26:58.574Z59.701° ENE43.485°2025-01-26 11:32:58.574Z165.464° S
6 mins2025-01-26 13:09:58.574Z301.027° NW2025-01-26 13:11:58.574Z280.054° WNW16.728°2025-01-26 13:15:58.574Z241.747° WSW
|